Home   Weather   Rotenburg (Wümme)   Past weeks

Flag for Germany Past Weather in Rotenburg (Wümme), Lower Saxony, Germany — Yesterday and Last 2 Weeks

Now
37 °F

Partly sunny.


Feels Like: 34 °F
Forecast: 23 / 27 °F
Wind: 5 mph from Southeast

Location: Bremen Airport

Current Time: Jan 21, 2017 at 2:27:35 pm

Latest Report: Jan 21, 2017 at 1:50 pm


Visibility: N/A

Pressure: 30.48 "Hg

Humidity: 87%

Dew Point: 34 °F

Location of Rotenburg (Wümme)Location

Past Weather in Rotenburg (Wümme) — Graph

°F

Rotenburg (Wümme) Temperature Yesterday

Maximum temperature yesterday: 34 °F (at 1:50 pm)
Minimum temperature yesterday: 19 °F (at 1:50 am)
Average temperature yesterday: 28 °F

High & Low Weather Summary for the Past Weeks

 TemperatureHumidityPressure
High45 °F (Jan 11, 2:20 pm)100% (Jan 7, 11:50 am)30.74 "Hg (Jan 7, 11:50 am)
Low14 °F (Jan 17, 2:20 am)59% (Jan 6, 1:20 pm)29.00 "Hg (Jan 13, 3:50 am)
Average31 °F90%30.17 "Hg
* Reported Jan 6 1:20 pm — Jan 21 1:20 pm, Rotenburg (Wümme), Weather by CustomWeather, © 2017

Note: Actual official high and low records may vary slightly from our data, if they occured in-between our weather recording intervals... More about our weather records

Advertising

Rotenburg (Wümme) Weather History for the Previous 24 Hours

Scroll right to see more
 ConditionsComfort  
Time TempWeatherWind HumidityBarometerVisibility
1:20 pm
Sat, Jan 21
37 °FPartly sunny.5 mph87%30.48 "HgN/A
12:50 pm37 °FPartly sunny.5 mph81%30.48 "HgN/A
12:20 pm37 °FPartly sunny.2 mph87%30.48 "HgN/A
11:50 am36 °FPartly sunny.2 mph93%30.51 "Hg4 mi
11:20 am36 °FPartly sunny.1 mph93%30.51 "Hg4 mi
10:50 am36 °FPartly sunny.2 mph93%30.51 "Hg4 mi
10:20 am34 °FPartly sunny.1 mph100%30.51 "Hg4 mi
9:50 am34 °FFog.2 mph100%30.51 "Hg2 mi
9:20 am34 °FFog.1 mph93%30.51 "Hg2 mi
8:50 am34 °FFog.No wind93%30.51 "Hg2 mi
8:20 am34 °FFog.1 mph93%30.51 "Hg2 mi
7:50 am34 °FFog.No wind93%30.51 "Hg2 mi
7:20 am34 °FFog.No wind93%30.51 "Hg2 mi
6:50 am34 °FFog.No wind93%30.51 "Hg3 mi
6:20 am34 °FFog.No wind93%30.51 "Hg3 mi
5:50 am34 °FFog.1 mph93%30.51 "Hg3 mi
5:20 am34 °FFog.2 mph93%30.51 "Hg3 mi
4:50 am32 °FIce fog.2 mph100%30.51 "Hg3 mi
4:20 am32 °FIce fog.2 mph100%30.51 "Hg3 mi
3:50 am32 °FIce fog.No wind100%30.51 "Hg3 mi
3:20 am32 °FDrizzle. Mostly cloudy.No wind100%30.51 "Hg3 mi
2:50 am34 °FDrizzle. Low clouds.No wind93%30.54 "Hg5 mi
2:20 am32 °FDrizzle. Low clouds.No wind100%30.54 "Hg5 mi
1:50 am34 °FDrizzle. Low clouds.No wind93%30.54 "Hg5 mi
1:20 am34 °FLow clouds.No wind93%30.54 "Hg6 mi
12:50 am34 °FLow clouds.No wind93%30.54 "Hg6 mi
12:20 am34 °FOvercast.No wind93%30.54 "Hg6 mi
11:50 pm
Fri, Jan 20
34 °FOvercast.2 mph87%30.54 "Hg6 mi
11:20 pm34 °FMostly cloudy.No wind93%30.57 "Hg6 mi
10:50 pm34 °FMostly cloudy.No wind87%30.57 "Hg6 mi
10:20 pm34 °FMostly cloudy.No wind87%30.57 "Hg6 mi
9:50 pm34 °FDrizzle. Mostly cloudy.No wind87%30.57 "Hg6 mi
9:20 pm34 °FMostly cloudy.No wind87%30.57 "Hg6 mi
8:50 pm34 °FMostly cloudy.No wind87%30.57 "Hg6 mi
8:20 pm34 °FMostly cloudy.No wind87%30.57 "Hg5 mi
7:50 pm34 °FMostly cloudy.No wind87%30.57 "Hg5 mi
7:20 pm32 °FPassing clouds.1 mph93%30.57 "Hg5 mi
6:50 pm32 °FPassing clouds.No wind93%30.57 "HgN/A
6:20 pm34 °FPassing clouds.No wind87%30.57 "HgN/A
5:50 pm34 °FPassing clouds.1 mph87%30.57 "HgN/A
5:20 pm34 °FPassing clouds.1 mph87%30.57 "HgN/A
4:50 pm34 °FPassing clouds.1 mph87%30.57 "HgN/A
4:20 pm34 °FDrizzle. Partly sunny.1 mph87%30.57 "HgN/A
3:50 pm34 °FDrizzle. Broken clouds.No wind81%30.57 "HgN/A
3:20 pm34 °FPartly sunny.1 mph81%30.57 "HgN/A
2:50 pm34 °FPartly sunny.1 mph81%30.57 "HgN/A
2:20 pm34 °FPartly sunny.1 mph81%30.57 "HgN/A
Weather by CustomWeather, © 2017

See weather overviewHow to use our weather pages